Flag for U.S.A. Weather past 2 weeks in Fairbanks, Alaska, U.S.A.

Now
73 °F

Scattered clouds.


Feels Like: 76 °F
Forecast: 47 / 70 °F
Wind: 9 mph from North

Location: Wainwright U. S. Army Airfield

Current Time: Jul 29, 2014 at 7:48:24 PM

Latest Report: Jul 29, 2014 at 6:55 PM


Visibility: 13 mi

Pressure: 30.08 "Hg

Humidity: 27%

Dew point: 37 °F

Location of FairbanksLocation

Historic Weather in Fairbanks — Graph

°F

Fairbanks temperature yesterday

Maximum temperature yesterday: 66 °F (at 5:55 PM)
Minimum temperature yesterday: 49 °F (at 1:56 AM)
Average temperature yesterday: 58 °F

Past Weeks' High & Low Weather Summary

 TemperatureHumidityPressure
High73 °F (Jul 29, 2:55 PM)100% (Jul 15, 8:55 AM)30.14 "Hg (Jul 15, 8:55 AM)
Low41 °F (Jul 27, 3:56 AM)27% (Jul 29, 5:55 PM)29.61 "Hg (Jul 18, 4:55 PM)
Average57 °F71%29.91 "Hg
* Reported Jul 14 5:55 PM — Jul 29 5:55 PM, Fairbanks, Weather by CustomWeather, © 2014

Note: Actual official high and low records may vary slightly from our data, if they occured in-between our weather recording intervals... More about our weather records

Advertising

Fairbanks weather history for previous 24 hours

 ConditionsComfort  
Time TempWeatherWind HumidityBarometerVisibility
5:55 PM
Jul 29
73 °FPartly sunny.12 mph27%30.08 "Hg13 mi
4:55 PM72 °FPartly sunny.9 mph33%30.09 "Hg13 mi
3:55 PM73 °FPartly sunny.7 mph33%30.08 "Hg13 mi
2:55 PM73 °FScattered clouds.12 mph33%30.08 "Hg13 mi
1:55 PM72 °FScattered clouds.12 mph36%30.09 "Hg13 mi
12:55 PM70 °FScattered clouds.8 mph40%30.10 "Hg13 mi
11:55 AM70 °FScattered clouds.7 mph40%30.10 "Hg13 mi
10:55 AM66 °FScattered clouds.7 mph49%30.11 "Hg13 mi
9:55 AM64 °FScattered clouds.6 mph49%30.11 "Hg13 mi
8:55 AM61 °FScattered clouds.No wind63%30.11 "Hg13 mi
7:55 AM55 °FScattered clouds.No wind77%30.10 "Hg13 mi
6:55 AM52 °FBroken clouds.No wind82%30.10 "Hg13 mi
5:56 AM48 °FSunny.No wind86%30.09 "Hg10 mi
4:56 AM48 °FClear.No wind83%30.09 "Hg10 mi
3:56 AM51 °FClear.No wind80%30.07 "Hg10 mi
2:56 AM50 °FClear.No wind86%30.07 "Hg10 mi
1:56 AM53 °FClear.No wind80%30.06 "Hg10 mi
12:56 AM57 °FClear.No wind67%30.06 "Hg10 mi
11:56 PM
Jul 28
58 °FScattered clouds.5 mph65%30.05 "Hg10 mi
10:56 PM60 °FSunny.6 mph62%30.04 "Hg10 mi
9:56 PM63 °FPassing clouds.7 mph54%30.02 "Hg10 mi
8:56 PM66 °FSunny.6 mph45%30.01 "Hg10 mi
7:56 PM65 °FScattered clouds.No wind42%30.00 "Hg10 mi
7:55 PM64 °FPartly sunny.3 mph43%30.00 "Hg13 mi
Weather by CustomWeather, © 2014

See weather overviewHow to use our weather pages